Location: Saint-Maurice-d�Ard�che
(44.5216°N, 4.4002°E)
Time: 16:42:52
(UTC+00:00)

CZ-2C R/B - Pass Details

Date: 30 March 2020
Orbit: 639 x 705 km, 98.4° (Epoch: 05 June)

Event Time Altitude Azimuth Distance (km) Brightness Sun altitude
Rises 19:43:07 0° 13° (NNE) 3,104 7.3 -17.1°
Reaches altitude 10° 19:45:24 10° 14° (NNE) 2,177 6.5 -17.5°
Maximum altitude 19:50:11 90° 105° (ESE) 702 3.7 -18.3°
Drops below altitude 10° 19:54:52 10° 195° (SSW) 2,130 6.2 -19.0°
Sets 19:57:04 0° 195° (SSW) 3,032 7.0 -19.4°
